Regional Weather Roundup
Issued by NWS

Home | Current Version | Previous Version | Text Only | Print | Product List | Glossary On
Versions: 1 2 3 4 5 6 7 8 9 10 11 12 13 14 15 16 17 18 19 20 21 22 23 24 25 26 27 28
000
ASUS45 KGTF 040510
RWRMT
MONTANA HOURLY WEATHER ROUNDUP
NATIONAL WEATHER SERVICE GREAT FALLS MT
1100 PM MDT SUN MAY 03 2015

NOTE: "FAIR" INDICATES FEW OR NO CLOUDS BELOW 12000 FEET WITH NO
SIGNIFICANT WEATHER AND/OR OBSTRUCTIONS TO VISIBILITY.

MTZ001>007-043-040600-
WEST OF THE DIVIDE

CITY           SKY/WX    TMP DP  RH WIND       PRES   REMARKS
KALISPELL      CLEAR     41  27  57 CALM      29.92R
MISSOULA       CLEAR     50  23  34 CALM      29.92R
BUTTE          CLEAR     49  25  39 VRB3      29.98R
DEER LODGE       N/A     45  23  42 W6        29.98S
EUREKA           N/A     43  27  52 CALM      29.94R
HAMILTON         N/A     48  27  43 S7        29.92R
LIBBY            N/A     46  28  49 SE3       29.93S
$$

MTZ008-052>055-040600-
SOUTHWEST MONTANA

CITY           SKY/WX    TMP DP  RH WIND       PRES   REMARKS
BOZEMAN        PTCLDY    47  31  53 CALM      29.95S
DILLON         MOCLDY    49  29  46 N7        29.94R
$$

MTZ009-010-012-014-046-048-049-054-040600-
EAST SLOPES AND CENTRAL MONTANA

CITY           SKY/WX    TMP DP  RH WIND       PRES   REMARKS
CUT BANK       CLEAR     43  22  43 E10       29.98S
GREAT FALLS    CLEAR     45  31  58 E7        29.96R
MALMSTROM AFB  CLEAR     47  32  56 E3        29.96R
HELENA         CLEAR     53  27  36 W9        29.93R
$$

MTZ011-013-016-021-045-047-050-051-040600-
NORTH CENTRAL MONTANA

CITY           SKY/WX    TMP DP  RH WIND       PRES   REMARKS
HAVRE          CLEAR     51  29  42 E13       30.01S
LEWISTOWN      PTCLDY    49  31  49 E13       30.01S
CHINOOK          N/A     46  28  49 E6        30.04R
FORT BENTON      N/A     55  30  38 NE10G18   29.98S
$$

MTZ017>020-022>042-056>058-061-062-040600-
EASTERN PLAINS

CITY           SKY/WX    TMP DP  RH WIND       PRES   REMARKS
BAKER          MOCLDY    40  30  67 SE6       30.11R
BILLINGS       MOCLDY    50  35  56 N7        30.01S
GLASGOW        CLEAR     46  26  45 E9        30.06S
JORDAN           N/A     44  27  51 CALM      30.06R
LIVINGSTON     CLEAR     50  34  54 E10       29.99R
MILES CITY     PTCLDY    53  28  38 E7        30.06S
SIDNEY         PTCLDY    43  23  45 CALM      30.11R
WOLF POINT     CLEAR     41  26  55 NE7       30.10R
BIG TIMBER       N/A     50  36  57 NE5       30.03S
FORSYTH          N/A     48  30  49 E5        30.05S
PLENTYWOOD       N/A     45  19  36 NE3       30.10S
POPLAR           N/A     46  23  39 NE8       30.10S
$$

REGIONAL REPORTS...DAKOTAS

CITY           SKY/WX    TMP DP  RH WIND       PRES   REMARKS
WILLISTON      PTCLDY    43  22  43 CALM      30.11R
MINOT          FAIR      44  26  49 W8        30.09R
DICKINSON      PTCLDY    45  26  47 NE7       30.09R
BEACH          FAIR      41  28  60 CALM      30.11R
CROSBY         FAIR      36  25  64 W5        30.11R
WATFORD CITY   FAIR      41  21  45 CALM      30.10R
BISMARCK       PTCLDY    49  24  37 CALM      30.10R
GRAND FORKS    CLEAR     44  28  53 NW6       30.02R
FARGO          CLEAR     50  28  42 NW6       30.01R
BUFFALO SD       N/A     49  34  56 NE7       30.04S
RAPID CITY     PTCLDY    49  34  56 NE12      30.08S
$$

REGIONAL REPORTS...WYOMING/IDAHO/WASHINGTON

CITY           SKY/WX    TMP DP  RH WIND       PRES   REMARKS
GILLETTE       CLOUDY    50  45  83 SE10      30.07S
SHERIDAN       MOCLDY    50  39  66 SE3       30.02F
BUFFALO WY     CLOUDY    51  44  77 SE12      30.08S
CODY           CLOUDY    52  45  76 SW9       30.01F
YELLOWSTONE LA   N/A     32  30  92 NW3       30.12F
IDAHO FALLS    MOCLDY    58  40  51 SE10      29.95S
SALMON         CLEAR     50  32  50 SE3       29.89R
BOISE          CLEAR     62  30  29 CALM      29.82R
SPOKANE        CLEAR     53  27  36 CALM      29.89S
$$

REGIONAL REPORTS...ALBERTA

CITY           SKY/WX    TMP DP  RH WIND       PRES   REMARKS
EDMONTON       CLEAR     37  34  87 E7        30.02S
CALGARY        PTCLDY    45  25  45 S14G21    29.98R
LETHBRIDGE     CLEAR     39  28  65 SE8       29.99S HAZE
MEDICINE HAT   CLEAR     45  28  53 E8        30.04S
$$

REGIONAL REPORTS...SASKATCHEWAN

CITY           SKY/WX    TMP DP  RH WIND       PRES   REMARKS
SWIFT CURRENT  MOCLDY    36  28  75 SE8       30.09R WCI  29
REGINA         PTCLDY    39  32  75 SW3       30.10S
SASKATOON      CLEAR     36  28  75 W9        30.09R WCI  29
$$



USA.gov is the U.S. government's official web portal to all federal, state and local government web resources and services.